User: anonymous   Login
Location: Beccas
(43.4309°N, 0.1528°E)
Time: 11:08:40
(UTC+00:00)
Language:

Cosmos 2082 - Orbit

View from above orbital plane
View from above orbital plane
View from above satellite
View from above satellite

Ground track
Ground track

The orbit data is extracted from the following two-line orbital elements,

1 20624U 90046A   22018.16134306 -.00000143  00000-0 -49943-4 0  9993
2 20624  71.0422 306.2619 0015698 341.3415  18.7130 14.14376313634151
Epoch (UTC): 18 January 2022 03:52:20
Eccentricity: 0.0015698
inclination: 71.0422°
perigee height: 833 km
apogee height: 856 km
right ascension of ascending node: 306.2619°
argument of perigee: 341.3415°
revolutions per day: 14.14376313
mean anomaly at epoch: 18.7130°
orbit number at epoch: 63415

The dashed part of the orbit path shows where the satellite is in the earth's shadow,  

DLR